Weather History for KHDE - February, 2013

Change the Weather History Date:

Wednesday, February 27, 2013

  Actual Average Record
Temperature  
Mean Temperature 30 °F -  
Max Temperature 35 °F 48 °F 77 °F (2006)
Min Temperature 25 °F 24 °F -8 °F (1962)
Degree Days  
Heating Degree Days 35    
Moisture  
Dew Point 24 °F    
Average Humidity 76    
Maximum Humidity 89    
Minimum Humidity 68    
Precipitation  
Precipitation 0.00 in - - ()
Sea Level Pressure  
Sea Level Pressure 30.07 in    
Wind  
Wind Speed 12 mph (NNW)    
Max Wind Speed 21 mph    
Max Gust Speed 25 mph    
Visibility 10 miles    
Events      
Averages and records for this station are not official NWS values.
T = Trace of Precipitation, MM = Missing Value Source: NWS Daily Summary

Daily Weather History Graph

Daily Weather History Graph

Search for Another Location

Airport or City:

Trip Planner

Search our weather history database for the weather conditions in past years. The results will help you decide how hot, cold, wet, or windy it might be!

Date:

Astronomy

Feb. 27, 2013 Rise Set
Actual Time 7:13 AM CST 6:26 PM CST
Civil Twilight 6:46 AM CST 6:54 PM CST
Nautical Twilight 6:14 AM CST 7:25 PM CST
Astronomical Twilight 5:43 AM CST 7:57 PM CST
Moon 8:50 PM CST (2/27) 7:49 AM CST (2/27)
Length of Visible Light 12h 08m
Length of Day
11h 13m
Waning Gibbous, 96% of the Moon is Illuminated
Feb 27
Waning Gibbous
Mar 4
Last Quarter
Mar 11
New
Mar 19
First Quarter
Mar 27
Full

Hourly Weather History & Observations

Time (CST) Temp. Windchill Dew Point Humidity Pressure Visibility Wind Dir Wind Speed Gust Speed Precip Events Conditions
12:15 AM 25.7 °F 19.0 °F 22.8 °F 89% 29.93 in 10.0 mi North 5.8 mph - N/A   Overcast
12:35 AM 26.2 °F 16.4 °F 22.8 °F 87% 29.93 in 10.0 mi North 10.4 mph - N/A   Overcast
12:55 AM 26.6 °F 19.1 °F 22.5 °F 84% 29.93 in 10.0 mi NNW 6.9 mph - N/A   Overcast
1:15 AM 26.6 °F 16.2 °F 21.7 °F 82% 29.94 in 10.0 mi North 11.5 mph - N/A   Overcast
1:35 AM 27.1 °F 17.5 °F 21.6 °F 80% 29.94 in 10.0 mi NNW 10.4 mph - N/A   Overcast
1:55 AM 26.1 °F 17.6 °F 21.2 °F 82% 29.95 in 10.0 mi NNW 8.1 mph - N/A   Mostly Cloudy
2:15 AM 26.1 °F 16.8 °F 21.2 °F 82% 29.95 in 10.0 mi NW 9.2 mph - N/A   Scattered Clouds
2:35 AM 26.1 °F 16.8 °F 21.2 °F 82% 29.95 in 10.0 mi NW 9.2 mph - N/A   Overcast
2:55 AM 25.5 °F 16.9 °F 21.0 °F 83% 29.95 in 10.0 mi NW 8.1 mph - N/A   Overcast
3:15 AM 25.3 °F 16.0 °F 21.0 °F 84% 29.95 in 10.0 mi NW 9.2 mph - N/A   Scattered Clouds
3:35 AM 25.9 °F 16.0 °F 21.0 °F 82% 29.95 in 10.0 mi NNW 10.4 mph - N/A   Clear
3:55 AM 26.2 °F 15.8 °F 20.7 °F 79% 29.95 in 10.0 mi NNW 11.5 mph - N/A   Clear
4:15 AM 26.4 °F 16.0 °F 20.8 °F 79% 29.95 in 10.0 mi NNW 11.5 mph 16.1 mph N/A   Clear
4:35 AM 27.1 °F 15.9 °F 21.2 °F 78% 29.96 in 10.0 mi NNW 13.8 mph - N/A   Scattered Clouds
4:55 AM 27.5 °F 16.3 °F 21.2 °F 77% 29.96 in 10.0 mi NNW 13.8 mph 21.9 mph N/A   Scattered Clouds
5:15 AM 27.5 °F 15.9 °F 21.2 °F 77% 29.97 in 10.0 mi NNW 15.0 mph - N/A   Clear
5:35 AM 27.5 °F 15.9 °F 20.8 °F 76% 29.98 in 10.0 mi NNW 15.0 mph - N/A   Scattered Clouds
5:55 AM 27.5 °F 15.0 °F 20.5 °F 75% 29.98 in 10.0 mi NNW 17.3 mph - N/A   Mostly Cloudy
6:15 AM 27.5 °F 15.4 °F 20.3 °F 74% 29.99 in 10.0 mi NNW 16.1 mph 20.7 mph N/A   Overcast
6:35 AM 27.3 °F 15.2 °F 20.3 °F 75% 30.00 in 10.0 mi NNW 16.1 mph 20.7 mph N/A   Mostly Cloudy
6:55 AM 27.1 °F 15.9 °F 20.3 °F 75% 30.00 in 10.0 mi NNW 13.8 mph - N/A   Scattered Clouds
7:15 AM 27.5 °F 14.6 °F 20.8 °F 76% 30.01 in 10.0 mi NNW 18.4 mph 23.0 mph N/A   Clear
7:35 AM 27.5 °F 15.0 °F 21.0 °F 77% 30.02 in 10.0 mi NNW 17.3 mph 23.0 mph N/A   Scattered Clouds
7:55 AM 28.4 °F 15.8 °F 21.6 °F 76% 30.02 in 10.0 mi NNW 18.4 mph 24.2 mph N/A   Mostly Cloudy
8:15 AM 29.3 °F 16.6 °F 22.8 °F 77% 30.04 in 10.0 mi North 19.6 mph 25.3 mph N/A   Overcast
8:35 AM 30.0 °F 18.3 °F 23.4 °F 76% 30.06 in 10.0 mi North 17.3 mph 23.0 mph N/A   Overcast
8:55 AM 30.2 °F 18.5 °F 23.4 °F 76% 30.07 in 10.0 mi North 17.3 mph 24.2 mph N/A   Overcast
9:15 AM 30.9 °F 19.4 °F 23.9 °F 75% 30.07 in 10.0 mi NNW 17.3 mph - N/A   Mostly Cloudy
9:35 AM 31.3 °F 19.5 °F 23.9 °F 74% 30.08 in 10.0 mi North 18.4 mph 23.0 mph N/A   Mostly Cloudy
9:55 AM 31.8 °F 20.6 °F 23.0 °F 70% 30.09 in 10.0 mi North 17.3 mph 21.9 mph N/A   Mostly Cloudy
10:15 AM 32.0 °F 19.8 °F 22.5 °F 68% 30.09 in 10.0 mi North 20.7 mph 25.3 mph N/A   Scattered Clouds
10:35 AM 32.9 °F 21.6 °F 23.9 °F 69% 30.10 in 10.0 mi North 18.4 mph 24.2 mph N/A   Scattered Clouds
10:55 AM 33.3 °F 23.2 °F 24.8 °F 71% 30.11 in 10.0 mi North 15.0 mph 23.0 mph N/A   Clear
11:15 AM 33.8 °F 23.9 °F 26.1 °F 73% 30.12 in 10.0 mi North 15.0 mph - N/A   Mostly Cloudy
11:35 AM 34.3 °F 24.2 °F 27.0 °F 74% 30.12 in 10.0 mi North 16.1 mph 25.3 mph N/A   Overcast
11:55 AM 35.1 °F 24.1 °F 27.5 °F 74% 30.12 in 10.0 mi North 19.6 mph 25.3 mph N/A   Overcast
12:15 PM 34.9 °F 25.7 °F 28.8 °F 78% 30.13 in 10.0 mi NNW 13.8 mph 25.3 mph N/A   Overcast
12:55 PM 35.6 °F 25.9 °F 28.9 °F 77% 30.12 in 10.0 mi NNW 16.1 mph 21.9 mph N/A   Overcast
1:15 PM 35.2 °F 25.4 °F 28.8 °F 77% 30.12 in 10.0 mi NNW 16.1 mph - N/A   Overcast
1:35 PM 35.2 °F 25.8 °F 28.6 °F 77% 30.13 in 10.0 mi NNW 15.0 mph 20.7 mph N/A   Overcast
2:35 PM 35.6 °F 25.9 °F 27.0 °F 71% 30.12 in 10.0 mi NNW 16.1 mph 23.0 mph N/A   Overcast
2:55 PM 35.6 °F 25.5 °F 27.1 °F 71% 30.13 in 10.0 mi NNW 17.3 mph 23.0 mph N/A   Overcast
3:15 PM 35.6 °F 25.2 °F 27.1 °F 71% 30.13 in 10.0 mi NNW 18.4 mph 21.9 mph N/A   Overcast
3:35 PM 35.6 °F 25.5 °F 27.3 °F 72% 30.13 in 10.0 mi NNW 17.3 mph 23.0 mph N/A   Overcast
3:55 PM 35.6 °F 26.6 °F 27.1 °F 71% 30.13 in 10.0 mi NNW 13.8 mph 21.9 mph N/A   Overcast
4:15 PM 35.2 °F 26.6 °F 27.5 °F 73% 30.13 in 10.0 mi NNW 12.7 mph 18.4 mph N/A   Overcast
4:35 PM 35.1 °F 25.5 °F 27.5 °F 74% 30.14 in 10.0 mi NNW 15.0 mph 19.6 mph N/A   Overcast
4:55 PM 34.9 °F 26.6 °F 27.1 °F 73% 30.14 in 10.0 mi NNW 11.5 mph - N/A   Overcast
5:15 PM 34.9 °F 26.2 °F 27.3 °F 74% 30.14 in 10.0 mi NNW 12.7 mph 16.1 mph N/A   Overcast
5:35 PM 34.7 °F 25.1 °F 26.6 °F 72% 30.15 in 10.0 mi NW 15.0 mph 19.6 mph N/A   Overcast
5:55 PM 34.0 °F 23.8 °F 26.4 °F 74% 30.15 in 10.0 mi NW 16.1 mph 21.9 mph N/A   Overcast
6:15 PM 33.8 °F 23.5 °F 26.1 °F 73% 30.15 in 10.0 mi NNW 16.1 mph 19.6 mph N/A   Overcast
6:35 PM 33.8 °F 24.3 °F 26.1 °F 73% 30.15 in 10.0 mi NW 13.8 mph - N/A   Overcast
6:55 PM 33.4 °F 24.8 °F 26.4 °F 75% 30.15 in 10.0 mi NNW 11.5 mph 21.9 mph N/A   Overcast
7:15 PM 33.3 °F 24.1 °F 26.2 °F 75% 30.16 in 10.0 mi NW 12.7 mph - N/A   Overcast
7:35 PM 33.3 °F 22.8 °F 25.5 °F 73% 30.16 in 10.0 mi NNW 16.1 mph 21.9 mph N/A   Overcast
8:15 PM 32.9 °F 23.7 °F 25.5 °F 74% 30.16 in 10.0 mi NNW 12.7 mph - N/A   Overcast
8:35 PM 32.5 °F 23.7 °F 26.1 °F 77% 30.16 in 10.0 mi NNW 11.5 mph - N/A   Overcast
8:55 PM 32.2 °F 22.7 °F 24.8 °F 74% 30.16 in 10.0 mi NNW 12.7 mph 23.0 mph N/A   Mostly Cloudy
9:15 PM 31.6 °F 23.1 °F 24.6 °F 75% 30.16 in 10.0 mi NNW 10.4 mph 16.1 mph N/A   Clear
9:35 PM 31.1 °F 23.1 °F 24.3 °F 76% 30.16 in 10.0 mi NNW 9.2 mph - N/A   Clear
9:55 PM 30.2 °F 22.6 °F 23.7 °F 77% 30.16 in 10.0 mi NNW 8.1 mph - N/A   Clear
10:35 PM 28.6 °F 20.7 °F 23.0 °F 80% 30.15 in 10.0 mi NNW 8.1 mph - N/A   Clear
10:55 PM 28.4 °F 19.7 °F 22.6 °F 79% 30.15 in 10.0 mi NNW 9.2 mph - N/A   Clear
11:15 PM 28.4 °F 19.7 °F 22.6 °F 79% 30.15 in 10.0 mi NNW 9.2 mph - N/A   Clear
11:35 PM 28.4 °F 18.5 °F 22.3 °F 78% 30.15 in 10.0 mi NNW 11.5 mph - N/A   Clear
11:55 PM 27.5 °F 18.0 °F 21.9 °F 80% 30.14 in 10.0 mi NW 10.4 mph - N/A   Clear